Regional Weather Roundup
Issued by NWS

Home | Current Version | Previous Version | Text Only | Print | Product List | Glossary Off
Versions: 1 2 3 4 5 6 7 8 9 10 11 12 13 14 15 16 17 18 19 20 21 22 23 24 25 26 27 28

000
ASUS45 KPSR 171710
RWRAZ

ARIZONA HOURLY REGIONAL WEATHER ROUNDUP
NATIONAL WEATHER SERVICE PHOENIX AZ
1000 AM MST TUE JAN 17 2017

NOTE: FAIR INDICATES FEW OR NO CLOUDS BELOW 12,000 FEET WITH NO
SIGNIFICANT WEATHER AND/OR OBSTRUCTIONS TO VISIBILITY.

AZZ001>003-036-171800-
NORTHWEST ARIZONA

CITY           SKY/WX    TMP DP  RH WIND       PRES   REMARKS
BULLHEAD CITY  SUNNY     52  21  30 N24G30    30.16R
KINGMAN        SUNNY     40  17  39 E5        30.15R
$$

AZZ004>008-015-016-018-171800-
NORTH CENTRAL ARIZONA

CITY           SKY/WX    TMP DP  RH WIND       PRES   REMARKS
GRAND CANYON   SUNNY     34  25  69 NE12      30.15R WCI  25
WILLIAMS       MOSUNNY   34  23  64 CALM      30.12R
PRESCOTT       CLOUDY    36  35  96 CALM      30.13R
FLAGSTAFF      MOSUNNY   34  24  67 NE7G17    30.13R WCI  28
PAYSON         PTSUNNY   41  30  65 CALM      30.14R
PAGE           SUNNY     39  23  52 CALM      30.19
$$

AZZ009>014-017-171800-
NORTHEAST ARIZONA

CITY           SKY/WX    TMP DP  RH WIND       PRES   REMARKS
WINSLOW        CLOUDY    37  33  85 W3        30.17R
SAINT JOHNS    CLOUDY    40  36  86 N5        30.13R
SHOW LOW       CLOUDY    32  28  86 N3        30.15S
$$

AZZ023-171800-
GREATER PHOENIX AREA

CITY           SKY/WX    TMP DP  RH WIND       PRES   REMARKS
PHOENIX        PTSUNNY   52  43  71 CALM      30.08R
BUCKEYE        MOSUNNY   50  45  81 CALM      30.11R
GLENDALE       PTSUNNY   52  46  82 CALM      30.10R
LUKE AFB       PTSUNNY   52  45  76 N3        30.08R
DEER VALLEY    MOSUNNY   52  43  71 CALM      30.07R
SCOTTSDALE     MOSUNNY   52  42  69 CALM      30.09R
MESA-FALCON    MOSUNNY  N/A N/A N/A N7        30.06R
MESA-GATEWAY   MOSUNNY   48  45  87 E3        30.10R
CHANDLER       SUNNY     50  45  81 VRB3      30.09R
$$

AZZ027-028-171800-
SOUTHWEST MARICOPA COUNTY AND PINAL COUNTY

CITY           SKY/WX    TMP DP  RH WIND       PRES   REMARKS
CASA GRANDE    SUNNY     47  41  80 CALM      30.10R
$$

AZZ503-504-507>509-171800-
SOUTHEAST ARIZONA

CITY           SKY/WX    TMP DP  RH WIND       PRES   REMARKS
TUCSON         SUNNY     47  41  80 SE6       30.10R
DAVIS-MONTHAN  SUNNY     48  43  82 CALM      30.08R
RYAN FIELD     SUNNY     46  43  87 CALM      30.10R
NOGALES        FOG       39  39 100 SE6       30.09R VSB 1/4 WCI  35
SIERRA VISTA   SUNNY     44  39  82 N5        30.11R
DOUGLAS        CLOUDY    44  40  85 N9        30.10R
SAFFORD        PTSUNNY   45  39  79 E7        30.11R
$$

AZZ020-021-025-026-031-171800-
SOUTHWEST ARIZONA

CITY           SKY/WX    TMP DP  RH WIND       PRES   REMARKS
YUMA           MOSUNNY   55  28  35 NE3       30.12R
$$

CAZ031-033-041-043-047-048-061-171800-
SOUTHERN CALIFORNIA

CITY           SKY/WX    TMP DP  RH WIND       PRES   REMARKS
DOWNTOWN L.A.  SUNNY     55  39  54 CALM      30.12R
L.A. AIRPORT   MOSUNNY   55  42  61 E7        30.12S
SAN DIEGO      SUNNY     57  49  74 E3        30.15R
BURBANK        SUNNY     50  35  56 CALM      30.11S
ONTARIO        SUNNY     53  33  46 E3        30.13R
RIVERSIDE      SUNNY     44  33  65 VRB5      30.14R
PALM SPRINGS   SUNNY     55  31  39 N5        30.14R
EL CENTRO NAS  MOSUNNY   52  43  71 W3        30.14R
IMPERIAL       SUNNY     51  44  77 CALM      30.12R
BLYTHE         SUNNY     50  31  48 S6        30.14R
NEEDLES        SUNNY     53  22  29 N13G22    30.16R
$$

NVZ020-UTZ003-171800-
SOUTHERN NEVADA-UTAH

CITY           SKY/WX    TMP DP  RH WIND       PRES   REMARKS
LAS VEGAS      SUNNY     44  19  36 S3        30.20R
SALT LAKE CITY MOSUNNY   24  19  81 CALM      30.32R
$$

NMZ009-TXZ055-171800-
NEW MEXICO-WEST TEXAS

CITY           SKY/WX    TMP DP  RH WIND       PRES   REMARKS
ALBUQUERQUE    MOSUNNY   42  37  82 NW6       30.17R
EL PASO        CLOUDY    46  35  65 N7        30.12R
$$


........................KEY........................
SKY/WX - SKY CONDITION/WEATHER
TMP    - TEMPERATURE IN FAHRENHEIT
DP     - DEW POINT IN FAHRENHEIT
RH     - RELATIVE HUMIDITY IN PERCENT
WIND   - DIRECTION AND SPEED IN MILES PER HOUR (MPH)
VRB    - VARIABLE WIND DIRECTION
PRES   - MEAN SEA LEVEL PRESSURE IN INCHES OF MERCURY
         F - FALLING PRESSURE   R - RISING PRESSURE
         S - STEADY PRESSURE
VSB    - VISIBILITY IN MILES
HX     - HEAT INDEX IN FAHRENHEIT
WCI    - WIND CHILL INDEX IN FAHRENHEIT
TC     - TEMPERATURE IN CELSIUS WHICH IS ALSO KNOWN AS
         TEMPERATURE IN CENTIGRADE
AFB    - AIR FORCE BASE
         LUKE AFB IS LUKE AIR FORCE BASE
         DAVIS-MONTHAN IS DAVIS-MONTHAN AIR FORCE BASE
NAS    - NAVAL AIR STATION
         EL CENTRO NAS IS EL CENTRO NAVAL AIR STATION
N/A    - NOT AVAILABLE





USA.gov is the U.S. government's official web portal to all federal, state and local government web resources and services.